Location: Poughquag
(41.6090°N, 73.6820°W)
Time: 09:30:04
(UTC-05:00)

SR - Pass Details

Date: 07 December 2023
Orbit: 574 x 868 km, 66.7° (Epoch: 25 February)

Event Time Altitude Azimuth Distance (km) Brightness Sun altitude
Rises 11:39:18 0° 237° (WSW) 3,275 ? 25.7°
Reaches altitude 10° 11:41:52 10° 246° (WSW) 2,391 ? 25.8°
Maximum altitude 11:46:53 34° 311° (NW) 1,359 ? 25.8°
Drops below altitude 10° 11:52:10 10° 15° (NNE) 2,510 ? 25.7°
Sets 11:54:56 0° 25° (NNE) 3,460 ? 25.7°
